Погода в Колпино

Россия / Смоленская область     54°17′15″N   33°10′18″E
темп.,
°C
ветер,
м/с
пор.,
м/с
влажн.,
%
обл.,
%
осадки,
мм/ч
давл.,
гПа
погр.,
м
10 мая, пн
пн1000:00+3ссз24720 0.0 102567
03:00+2ссз22735 0.0 102718
06:00+2с11715 0.0 102816
09:00+10св12484 0.0 1028440
12:00+14ссв22374 0.0 10281486
15:00+15ссв23350 0.0 10271657
18:00+14с24470 0.0 10261328
21:00+8св22730 0.0 102831
11 мая, вт
вт1100:00+5всв25740 0.0 102876
03:00+4св24820 0.0 102869
06:00+4св39810 0.0 1028178
09:00+11св48540 0.0 1027508
12:00+16всв46501 0.0 1025808
15:00+19св56490 0.0 10241065
18:00+18всв48625 0.0 10231153
21:00+13в310907 0.0 1024296
12 мая, ср
ср1200:00+12юв399563 0.0 1025504
03:00+8вюв27974 0.0 1026172
06:00+7вюв26955 0.0 1026197
09:00+11в3464100 0.0 1025602
12:00+9всв3687100 0.8 1024518
15:00+8с1394100 3.0 1020257
18:00+8ююз2498100 3.1 1016286
21:00+7ююв51095100 3.7 1017665
13 мая, чт
чт1300:00+7вюв4119539 0.4 1018491
03:00+7вюв41296100 0.6 1017641
06:00+7вюв41196100 0.1 1016728
09:00+10юв498695 0.4 10161117
12:00+12ююв4874100 0.3 10161330
15:00+14ююв5759100 0.4 10161216
18:00+15ююв386426 0.0 10161342
21:00+10вюв228545 0.0 101725
14 мая, пт
пт1400:00+8вюв3691100 0.0 1017112
03:00+10вюв31091100 0.0 1015205
06:00+11вюв41395100 1.0 1014410
09:00+16вюв51482100 1.1 1012725
12:00+19юв61169100 0.4 10111049
15:00+19ююв6108178 2.5 10101088
18:00+18ю4988100 2.9 1010763
21:00+14ю31097100 3.8 1010300